| time (UTC) | temp F | wind direction | speed knots | gust knots | rain 1hr in | rain 24hr in | rain mn in | humidity % | barometer mb |
| 20260506060532 | 75 | 190 | 1.7 | 4.3 | 0.00 | 0.00 | 0.00 | 100 | 1051.4 |
| 20260506050632 | 76 | 177 | 3.5 | 7.8 | 0.00 | 0.00 | 0.00 | 100 | 1051.6 |
| 20260506044723 | 76 | 61 | 2.6 | 5.2 | 0.00 | 0.00 | 0.00 | 100 | 1051.4 |
| 20260506044621 | 76 | 303 | 2.6 | 5.2 | 0.00 | 0.00 | 0.00 | 100 | 1051.5 |
| 20260506043621 | 76 | 326 | 0.9 | 2.6 | 0.00 | 0.00 | 0.00 | 100 | 1051.5 |
| 20260506042622 | 77 | 40 | 1.7 | 6.1 | 0.00 | 0.00 | 0.00 | 100 | 1051.5 |
| 20260506041721 | 77 | 149 | 1.7 | 4.3 | 0.00 | 0.00 | 0.00 | 100 | 1051.3 |
| 20260506040721 | 77 | 240 | 2.6 | 4.3 | 0.00 | 0.00 | 0.00 | 100 | 1051.3 |
| 20260506035723 | 77 | 62 | 1.7 | 3.5 | 0.00 | 0.00 | 0.00 | 100 | 1051.2 |
| 20260506034721 | 77 | 93 | 0.9 | 3.5 | 0.00 | 0.00 | 0.00 | 100 | 1051.1 |
| 20260506033723 | 77 | 105 | 3.5 | 6.1 | 0.00 | 0.00 | 0.00 | 100 | 1050.9 |
| 20260506032721 | 77 | 99 | 1.7 | 4.3 | 0.00 | 0.00 | 0.00 | 100 | 1051.0 |
| 20260506031722 | 78 | 124 | 1.7 | 3.5 | 0.00 | 0.00 | 0.00 | 100 | 1050.6 |
| 20260506030721 | 78 | 163 | 1.7 | 3.5 | 0.00 | 0.00 | 0.00 | 100 | 1050.5 |
| 20260506025820 | 78 | 83 | 1.7 | 6.1 | 0.00 | 0.00 | 0.00 | 100 | 1050.5 |
| 20260506023921 | 78 | 88 | 1.7 | 4.3 | 0.00 | 0.00 | 0.00 | 100 | 1050.1 |
| 20260506022922 | 79 | 99 | 1.7 | 5.2 | 0.00 | 0.00 | 0.00 | 100 | 1049.8 |
| 20260506021919 | 79 | 145 | 1.7 | 3.5 | 0.00 | 0.00 | 0.00 | 100 | 1049.5 |
| 20260506020921 | 80 | 183 | 1.7 | 5.2 | 0.00 | 0.00 | 0.00 | 100 | 1049.5 |
| 20260506015919 | 80 | 127 | 1.7 | 5.2 | 0.00 | 0.00 | 0.00 | 100 | 1049.2 |
| 20260506014923 | 80 | 226 | 0.9 | 3.5 | 0.00 | 0.00 | 0.00 | 100 | 1049.3 |
| 20260506013021 | 81 | 108 | 1.7 | 6.1 | 0.00 | 0.00 | 0.00 | 100 | 1049.1 |
| 20260506012022 | 81 | 67 | 0.9 | 3.5 | 0.00 | 0.00 | 0.00 | 100 | 1049.2 |
| 20260506011020 | 81 | 27 | 0.9 | 2.6 | 0.00 | 0.00 | 0.00 | 100 | 1049.3 |
| 20260506005120 | 82 | 126 | 1.7 | 4.3 | 0.00 | 0.00 | 0.00 | 100 | 1049.2 |
| 20260506004122 | 82 | 70 | 1.7 | 3.5 | 0.00 | 0.00 | 0.00 | 100 | 1049.1 |
| 20260506003121 | 82 | 63 | 0.9 | 2.6 | 0.00 | 0.00 | 0.00 | 100 | 1049.0 |
| 20260506002220 | 82 | 291 | 3.5 | 6.1 | 0.00 | 0.00 | 0.00 | 100 | 1049.0 |
| 20260506001223 | 82 | 122 | 0.9 | 4.3 | 0.00 | 0.00 | 0.00 | 100 | 1048.9 |
| 20260505235221 | 83 | 105 | 0.0 | 2.6 | 0.00 | 0.00 | 0.00 | 100 | 1048.8 |
| 20260505234221 | 83 | 334 | 1.7 | 6.1 | 0.00 | 0.00 | 0.00 | 100 | 1048.7 |
| 20260505233319 | 83 | 48 | 0.9 | 3.5 | 0.00 | 0.00 | 0.00 | 100 | 1048.7 |
| 20260505232321 | 83 | 34 | 0.9 | 4.3 | 0.00 | 0.00 | 0.00 | 100 | 1048.6 |
| 20260505230320 | 83 | 20 | 0.9 | 3.5 | 0.00 | 0.00 | 0.00 | 100 | 1048.5 |
| 20260505225320 | 84 | 87 | 2.6 | 6.1 | 0.00 | 0.00 | 0.00 | 100 | 1048.4 |
| 20260505224319 | 84 | 107 | 2.6 | 6.1 | 0.00 | 0.00 | 0.00 | 100 | 1048.5 |
| 20260505224221 | 84 | 51 | 1.7 | 5.2 | 0.00 | 0.00 | 0.00 | 100 | 1048.5 |
| 20260505223320 | 84 | 254 | 3.5 | 8.7 | 0.00 | 0.00 | 0.00 | 100 | 1048.5 |
| 20260505222420 | 84 | 61 | 2.6 | 4.3 | 0.00 | 0.00 | 0.00 | 100 | 1048.5 |
| 20260505220420 | 84 | 358 | 1.7 | 5.2 | 0.00 | 0.00 | 0.00 | 100 | 1048.5 |
| 20260505215419 | 84 | 165 | 3.5 | 10.4 | 0.00 | 0.00 | 0.00 | 100 | 1048.6 |
| 20260505214420 | 84 | 39 | 2.6 | 4.3 | 0.00 | 0.00 | 0.00 | 100 | 1049.0 |
| 20260505213422 | 84 | 187 | 3.5 | 7.8 | 0.00 | 0.00 | 0.00 | 100 | 1049.1 |
| 20260505212421 | 83 | 235 | 4.3 | 11.3 | 0.00 | 0.00 | 0.00 | 100 | 1049.1 |
| 20260505211421 | 83 | 255 | 3.5 | 7.8 | 0.00 | 0.00 | 0.00 | 100 | 1049.1 |
| 20260505210519 | 83 | 162 | 2.6 | 7.0 | 0.00 | 0.00 | 0.00 | 100 | 1049.1 |
| 20260505205520 | 83 | 76 | 1.7 | 5.2 | 0.00 | 0.00 | 0.00 | 100 | 1049.3 |
| 20260505202720 | 81 | 219 | 2.6 | 6.1 | 0.00 | 0.00 | 0.00 | 100 | 1050.2 |
| 20260505201721 | 81 | 223 | 2.6 | 7.8 | 0.00 | 0.00 | 0.00 | 100 | 1050.2 |
| 20260505194720 | 81 | 80 | 2.6 | 4.3 | 0.00 | 0.00 | 0.00 | 100 | 1050.5 |
| 20260505193819 | 80 | 197 | 2.6 | 7.0 | 0.00 | 0.00 | 0.00 | 100 | 1050.6 |
| 20260505192821 | 80 | 205 | 2.6 | 6.1 | 0.00 | 0.00 | 0.00 | 100 | 1050.6 |
| 20260505191821 | 80 | 104 | 1.7 | 4.3 | 0.00 | 0.00 | 0.00 | 100 | 1050.7 |
| 20260505190820 | 79 | 83 | 1.7 | 4.3 | 0.00 | 0.00 | 0.00 | 100 | 1050.7 |
| 20260505185821 | 79 | 273 | 3.5 | 9.6 | 0.00 | 0.00 | 0.00 | 100 | 1050.9 |
| 20260505183819 | 79 | 265 | 3.5 | 7.8 | 0.00 | 0.00 | 0.00 | 100 | 1051.3 |
| 20260505182822 | 78 | 205 | 0.9 | 3.5 | 0.00 | 0.00 | 0.00 | 100 | 1051.4 |
| 20260505181820 | 77 | 197 | 1.7 | 3.5 | 0.00 | 0.00 | 0.00 | 100 | 1051.3 |
| 20260505174921 | 75 | 221 | 1.7 | 5.2 | 0.00 | 0.00 | 0.00 | 100 | 1051.8 |
| 20260505173920 | 75 | 309 | 2.6 | 6.1 | 0.00 | 0.00 | 0.00 | 100 | 1051.9 |
| 20260505172919 | 75 | 254 | 5.2 | 8.7 | 0.00 | 0.00 | 0.00 | 100 | 1052.0 |
| 20260505171919 | 74 | 86 | 2.6 | 5.2 | 0.00 | 0.00 | 0.00 | 100 | 1052.0 |
| 20260505170920 | 74 | 182 | 1.7 | 9.6 | 0.00 | 0.00 | 0.00 | 100 | 1052.2 |
| 20260505165921 | 74 | 265 | 3.5 | 9.6 | 0.00 | 0.00 | 0.00 | 100 | 1052.0 |
| 20260505165018 | 74 | 115 | 2.6 | 5.2 | 0.00 | 0.00 | 0.00 | 100 | 1052.0 |
| 20260505164020 | 74 | 273 | 2.6 | 6.1 | 0.00 | 0.00 | 0.00 | 100 | 1052.0 |
| 20260505163020 | 73 | 90 | 1.7 | 3.5 | 0.00 | 0.00 | 0.00 | 100 | 1052.0 |
| 20260505162021 | 72 | 241 | 2.6 | 5.2 | 0.00 | 0.00 | 0.00 | 100 | 1052.0 |
| 20260505161019 | 72 | 257 | 3.5 | 7.8 | 0.00 | 0.00 | 0.00 | 100 | 1052.1 |
| 20260505153019 | 71 | 257 | 3.5 | 8.7 | 0.00 | 0.00 | 0.00 | 100 | 1052.2 |
| 20260505152019 | 71 | 253 | 3.5 | 6.1 | 0.00 | 0.00 | 0.00 | 100 | 1052.1 |
| 20260505151022 | 71 | 258 | 2.6 | 10.4 | 0.00 | 0.00 | 0.00 | 100 | 1051.9 |
| 20260505130118 | 70 | 359 | 0.9 | 3.5 | 0.00 | 0.00 | 0.00 | 100 | 1051.1 |
| 20260505123122 | 70 | 285 | 3.5 | 8.7 | 0.00 | 0.00 | 0.00 | 100 | 1050.8 |
| 20260505122121 | 70 | 156 | 2.6 | 6.1 | 0.00 | 0.00 | 0.00 | 100 | 1050.4 |
| 20260505120120 | 70 | 59 | 1.7 | 4.3 | 0.00 | 0.00 | 0.00 | 100 | 1050.3 |
| 20260505115218 | 70 | 276 | 1.7 | 4.3 | 0.00 | 0.00 | 0.00 | 100 | 1050.4 |
| 20260505114318 | 70 | 292 | 0.9 | 3.5 | 0.00 | 0.00 | 0.00 | 100 | 1050.4 |
| 20260505113319 | 70 | 178 | 3.5 | 10.4 | 0.00 | 0.00 | 0.00 | 100 | 1050.3 |
| 20260505112320 | 70 | 250 | 2.6 | 8.7 | 0.00 | 0.00 | 0.00 | 100 | 1050.3 |
| 20260505111419 | 70 | 246 | 2.6 | 6.1 | 0.00 | 0.00 | 0.00 | 100 | 1050.2 |
| 20260505095621 | 70 | 228 | 2.6 | 6.1 | 0.00 | 0.00 | 0.00 | 100 | 1050.6 |
| 20260505094718 | 70 | 242 | 5.2 | 9.6 | 0.00 | 0.00 | 0.00 | 100 | 1050.4 |
| 20260505092718 | 70 | 164 | 4.3 | 8.7 | 0.00 | 0.00 | 0.00 | 100 | 1050.8 |
| 20260505091719 | 70 | 96 | 3.5 | 8.7 | 0.00 | 0.00 | 0.00 | 100 | 1050.4 |
| 20260505090720 | 70 | 9 | 3.5 | 7.0 | 0.00 | 0.00 | 0.00 | 100 | 1050.6 |
| 20260505085719 | 70 | 166 | 3.5 | 10.4 | 0.00 | 0.00 | 0.00 | 100 | 1050.7 |
| 20260505083720 | 70 | 183 | 2.6 | 7.8 | 0.00 | 0.00 | 0.00 | 100 | 1050.6 |
| 20260505082718 | 70 | 95 | 3.5 | 8.7 | 0.00 | 0.00 | 0.00 | 100 | 1051.0 |
| 20260505081720 | 70 | 211 | 2.6 | 6.1 | 0.00 | 0.00 | 0.00 | 100 | 1051.3 |
| 20260505080818 | 70 | 96 | 3.5 | 8.7 | 0.00 | 0.00 | 0.00 | 100 | 1051.0 |
| 20260505073920 | 70 | 204 | 4.3 | 9.6 | 0.00 | 0.00 | 0.00 | 100 | 1051.6 |
| 20260505072918 | 70 | 266 | 3.5 | 8.7 | 0.00 | 0.00 | 0.00 | 100 | 1051.3 |
| 20260505071920 | 70 | 156 | 2.6 | 5.2 | 0.00 | 0.00 | 0.00 | 100 | 1051.7 |
| 20260505070919 | 70 | 251 | 3.5 | 8.7 | 0.00 | 0.00 | 0.00 | 100 | 1051.9 |